Weather History for Torrington, WY

Change the Weather History Date:

Sunday, April 7, 2013

  Actual Average Record
Temperature  
Mean Temperature 55 °F 44 °F  
Max Temperature 66 °F 58 °F 76 °F (2005)
Min Temperature 43 °F 30 °F 16 °F (2007)
Degree Days  
Heating Degree Days 10 21  
Month to date heating degree days 110 154  
Since 1 July heating degree days 5575 5838  
Cooling Degree Days 0 0  
Month to date cooling degree days 0 0  
Year to date cooling degree days 0 0  
Growing Degree Days 4 (Base 50)    
Moisture  
Dew Point 28 °F    
Average Humidity 38    
Maximum Humidity 57    
Minimum Humidity 19    
Precipitation  
Precipitation 0.00 in 0.04 in 0.07 in (2001)
Month to date precipitation T 0.24  
Year to date precipitation 0.54 1.59  
Sea Level Pressure  
Sea Level Pressure 29.62 in    
Wind  
Wind Speed 13 mph (West)    
Max Wind Speed 32 mph    
Max Gust Speed 44 mph    
Visibility 10 miles    
Events      
T = Trace of Precipitation, MM = Missing Value Source: NWS Daily Summary

Daily Weather History Graph

Daily Weather History Graph

Search for Another Location

Airport:

Trip Planner

Search our weather history database for the weather conditions in past years. The results will help you decide how hot, cold, wet, or windy it might be!

Date:

Astronomy

Apr. 07, 2013 Rise Set
Actual Time 6:28 AM MDT 7:29 PM MDT
Civil Twilight 6:00 AM MDT 7:57 PM MDT
Nautical Twilight 5:26 AM MDT 8:31 PM MDT
Astronomical Twilight 4:50 AM MDT 9:07 PM MDT
Moon 4:50 AM MDT (4/7) 5:01 PM MDT (4/7)
Length of Visible Light 13h 57m
Length of Day
13h 00m
Waning Crescent, 8% of the Moon is Illuminated
Apr 7
Waning Crescent
Apr 10
New
Apr 18
First Quarter
Apr 25
Full
May 2
Last Quarter

Hourly Weather History & Observations

Time (MDT) Temp. Windchill Dew Point Humidity Pressure Visibility Wind Dir Wind Speed Gust Speed Precip Events Conditions
12:53 AM 50.0 °F - 28.9 °F 44% 29.72 in 10.0 mi WSW 8.1 mph - N/A   Overcast
1:53 AM 52.0 °F - 30.9 °F 45% 29.71 in 10.0 mi West 8.1 mph - N/A   Overcast
2:53 AM 52.0 °F - 30.9 °F 45% 29.70 in 10.0 mi WSW 11.5 mph 20.7 mph N/A   Overcast
3:53 AM 51.1 °F - 30.9 °F 46% 29.69 in 10.0 mi WSW 13.8 mph 20.7 mph N/A   Mostly Cloudy
4:53 AM 48.9 °F - 30.9 °F 50% 29.69 in 10.0 mi WSW 6.9 mph - N/A   Clear
5:53 AM 46.9 °F - 30.9 °F 54% 29.70 in 10.0 mi West 8.1 mph - N/A   Partly Cloudy
6:53 AM 43.0 °F 41.3 °F 28.9 °F 58% 29.72 in 10.0 mi SW 3.5 mph - N/A   Clear
7:53 AM 46.9 °F - 30.0 °F 52% 29.71 in 10.0 mi Variable 5.8 mph - N/A   Clear
8:53 AM 54.0 °F - 30.0 °F 40% 29.69 in 10.0 mi WNW 15.0 mph - N/A   Clear
9:53 AM 57.0 °F - 28.9 °F 34% 29.66 in 10.0 mi WNW 16.1 mph 31.1 mph N/A   Clear
10:53 AM 60.1 °F - 28.0 °F 30% 29.65 in 10.0 mi WNW 17.3 mph 26.5 mph N/A   Clear
11:53 AM 62.1 °F - 26.1 °F 25% 29.63 in 10.0 mi West 15.0 mph 24.2 mph N/A   Clear
12:53 PM 63.0 °F - 24.1 °F 23% 29.59 in 10.0 mi NW 15.0 mph 21.9 mph N/A   Clear
1:53 PM 63.0 °F - 23.0 °F 22% 29.56 in 10.0 mi WNW 12.7 mph 21.9 mph N/A   Mostly Cloudy
2:53 PM 64.0 °F - 21.9 °F 20% 29.56 in 10.0 mi West 21.9 mph 28.8 mph N/A   Mostly Cloudy
3:53 PM 63.0 °F - 24.1 °F 23% 29.55 in 10.0 mi West 20.7 mph 29.9 mph N/A   Partly Cloudy
4:53 PM 62.1 °F - 26.1 °F 25% 29.55 in 10.0 mi West 21.9 mph 28.8 mph N/A   Scattered Clouds
5:53 PM 61.0 °F - 28.0 °F 29% 29.54 in 10.0 mi West 15.0 mph 20.7 mph N/A   Clear
6:53 PM 57.9 °F - 28.9 °F 33% 29.56 in 10.0 mi West 19.6 mph 26.5 mph N/A   Partly Cloudy
7:53 PM 55.9 °F - 28.9 °F 36% 29.56 in 10.0 mi WSW 11.5 mph - N/A   Clear
8:53 PM 54.0 °F - 28.0 °F 37% 29.55 in 10.0 mi WSW 11.5 mph - N/A   Clear
9:53 PM 51.1 °F - 28.0 °F 41% 29.57 in 10.0 mi SSW 6.9 mph - N/A   Clear
10:53 PM 53.1 °F - 28.9 °F 40% 29.54 in 10.0 mi SW 13.8 mph - N/A   Clear
11:53 PM 51.1 °F - 30.0 °F 44% 29.54 in 10.0 mi SW 17.3 mph 24.2 mph N/A   Clear